TUBIN
1 48900U 21059X   25226.53114302  .00051695  00000-0  50214-3 0  9995
2 48900  97.6784  41.4041 0002287 348.6558  11.4650 15.66172202230347
LEDSAT
1 49069U 21073D   25226.47839618  .00120522  00000-0  95848-3 0  9993
2 49069  97.3830 311.1961 0008833 193.8696 166.2325 15.70804136221742
CUTE
1 49263U 21088D   25226.47430155  .00015441  00000-0  27883-3 0  9995
2 49263  97.4473 304.7583 0006262   7.6450 352.4896 15.49802831214621
TeikyoSat 4
1 49396U 21102B   25226.51846711  .00002487  00000-0  16598-3 0  9990
2 49396  97.4061 262.5618 0010894 266.8111  93.1871 15.07881814206489
Z-Sat
1 49399U 21102E   25226.55071872  .00003514  00000-0  19173-3 0  9999
2 49399  97.3757 266.1056 0016612 231.3951 128.5794 15.14886250206969
KOSEN 1
1 49402U 21102H   25226.53959341  .00006824  00000-0  30941-3 0  9991
2 49402  97.3657 270.0192 0015112 201.9345 158.1246 15.21053050207315
HO-113
1 50466U 21131B   25226.59356962  .00000438  00000-0  15042-3 0  9991
2 50466  98.5097 315.6239 0003075 307.2527  52.8380 14.40879514190954
SNUGLITE 2
1 52899U 22065F   25226.34050780  .00001099  00000-0  22189-3 0  9996
2 52899  98.1774   7.7089 0006332 266.4151  93.6327 14.63345646166107
UmKA 1 (RS40S)
1 57172U 23091G   25226.56065320  .00006069  00000-0  31851-3 0  9993
2 57172  97.5528 281.6081 0015770 105.8754 254.4218 15.15999414117470
CubeBel-2 (EU11S)
1 57175U 23091K   25226.60711840  .00008593  00000-0  39683-3 0  9991
2 57175  97.5525 283.2210 0013460 111.4310 248.8362 15.20372887117581
VERONIKA
1 58261U 23174F   25226.37941510  .06389820  25010-5  11730-2 0  9999
2 58261  97.3950 317.9599 0015267 265.3450  94.6101 16.32006270 99103
ENSO
1 58470U 23185J   25226.54562516  .00082266  00000-0  88612-3 0  9996
2 58470  97.3669 304.0989 0006940 193.2070 166.9008 15.63410216 95317
EIRSAT-1
1 58472U 23185L   25226.56198227  .00364835  50734-4  12903-2 0  9991
2 58472  97.3562 307.6493 0007614 223.7394 136.3276 15.88989900 95559
SONATE-2
1 59112U 24043Q   25226.32878963  .00018584  00000-0  50312-3 0  9994
2 59112  97.5215 358.9428 0009854 235.7677 124.2635 15.37686806 80439
MO-122
1 60209U 24125G   25226.52034114  .00018678  00000-0  49590-3 0  9998
2 60209  97.2727  77.4713 0016182 258.4536 101.4893 15.38197200 62081
GRBBeta
1 60237U 24128C   25226.33929932  .00004468  00000-0  33393-3 0  9998
2 60237  61.9900 210.1908 0055944  71.5192 289.1968 15.03104621 60088
Curium One
1 60242U 24128H   25226.45950114  .00008161  00000-0  55282-3 0  9998
2 60242  61.9799 207.0411 0056005  67.9851 292.7178 15.05927115 60158
ROBUSTA-3A
1 60243U 24128J   25226.41673375  .00007039  00000-0  48630-3 0  9998
2 60243  61.9869 208.2449 0055120  65.5797 295.1033 15.05406620 60139
CatSat
1 60246U 24125J   25226.57413801  .00017853  00000-0  56771-3 0  9991
2 60246  97.2541  75.9621 0040303 216.9108 142.9359 15.31856164 60082
HYPERVIEW-1G (RS66S)
1 61772U 24199AP  25226.57686599  .00022694  00000-0  60816-3 0  9997
2 61772  97.3433  95.3737 0011162 322.3450  37.7013 15.37942079 87090
AO-123
1 61781U 24199AY  25226.55959366  .00006842  00000-0  24387-3 0  9990
2 61781  97.3453  93.4712 0014467 329.7681  30.2723 15.29139390 86968
ZIMSAT 2
1 61783U 24199BA  25226.62605903  .00045028  00000-0  94284-3 0  9997
2 61783  97.3397  96.6256 0009737 316.3762  43.6716 15.45259816 90331
HADES-R (SO-124)
1 62690U 25009CK  25226.48573315  .00042807  00000-0  13198-2 0  9997
2 62690  97.4053 307.2134 0003371 199.4267 160.6847 15.33465202 32238
HYDRA-T
1 62692U 25009CM  25226.19697762  .00044140  00000-0  13455-2 0  9998
2 62692  97.4055 306.9891 0003245 195.8655 164.2486 15.33820460 32194
JINJUSat 1B
1 63210U 25052A   25226.24164997  .00011866  00000-0  52338-3 0  9991
2 63210  97.4320 119.5586 0006323  93.4030 266.7930 15.21914508 23236
NUSHSAT 1
1 63211U 25052B   25226.42109924  .00012896  00000-0  56221-3 0  9990
2 63211  97.4308 119.7571 0006435  96.9387 263.2581 15.22292450 23269
TEVEL2-4
1 63213U 25052D   25226.25146826  .00013044  00000-0  57482-3 0  9991
2 63213  97.4225 119.3623 0005389 108.1762 252.0061 15.21928025 23232
TEVEL2-5
1 63214U 25052E   25226.25309250  .00013206  00000-0  58240-3 0  9997
2 63214  97.4225 119.3607 0005383 108.1678 252.0145 15.21896949 23237
TEVEL2-6
1 63215U 25052F   25226.19120747  .00012730  00000-0  56227-3 0  9997
2 63215  97.4227 119.2929 0005465 108.8793 251.3036 15.21855278 23222
TEVEL2-1
1 63217U 25052H   25226.27777903  .00011863  00000-0  52783-3 0  9999
2 63217  97.4199 119.2809 0005496 117.7548 242.4245 15.21619961 23231
TEVEL2-3
1 63218U 25052J   25226.21221922  .00011820  00000-0  52587-3 0  9994
2 63218  97.4202 119.2175 0005519 118.4714 241.7079 15.21622917 23223
TEVEL2-2
1 63219U 25052K   25226.14688018  .00011752  00000-0  52305-3 0  9992
2 63219  97.4201 119.1515 0005496 118.6716 241.5073 15.21611608 23214
TEVEL2-9
1 63237U 25052AD  25226.46266152  .00011700  00000-0  53977-3 0  9997
2 63237  97.4263 119.3157 0009434 135.3156 224.8841 15.20354337 23248
TEVEL2-7
1 63238U 25052AE  25226.20464649  .00011269  00000-0  52123-3 0  9993
2 63238  97.4265 119.0530 0009478 136.1737 224.0252 15.20272498 23206
TEVEL2-8
1 63239U 25052AF  25226.01054670  .00011097  00000-0  51387-3 0  9992
2 63239  97.4267 118.8523 0009488 136.9219 223.2760 15.20237685 23172
HYDRA-W
1 63490U 25052BL  25226.24108755  .00030015  00000-0  11524-2 0  9999
2 63490  97.4212 119.8119 0013338 133.3781 226.8570 15.26325816 23265
HADES-ICM (SO-125)
1 63492U 25052BN  25226.21265817  .00027299  00000-0  10686-2 0  9999
2 63492  97.4207 119.7079 0013688 137.8738 222.3555 15.25696532 23252
